Theta_e
313 313 314 315 316 317 318 319 319 320 326 336 338 338 338 336 336 337 338 338 331 325 331 338 337 340 337 335 335 335 335 334
312 312 314 314 314 316 318 318 318 318 319 321 331 334 334 336 336 336 336 338 337 333 331 336 338 337 337 336 334 335 335 334
311 312 311 310 310 311 311 315 319 318 318 317 319 324 331 333 335 336 337 338 339 335 332 334 335 335 335 335 336 334 335 334
311 310 309 309 307 307 309 311 313 321 319 318 318 319 323 330 333 335 337 337 338 337 337 336 335 335 335 333 335 335 333 333
308 307 306 306 306 304 306 311 315 317 323 322 320 321 321 327 331 333 335 338 337 337 337 336 335 335 335 334 333 332 332 331
305 304 304 303 302 302 303 309 314 318 321 323 326 329 325 320 329 333 335 335 336 337 336 336 336 336 336 333 330 326 324 325
304 304 303 302 301 302 303 304 308 312 316 319 320 324 331 328 328 329 335 334 333 334 334 334 335 336 334 332 326 323 324 322
303 302 302 302 300 301 303 303 303 305 308 312 318 323 328 332 330 331 334 334 334 333 332 332 335 334 333 327 330 325 326 323
304 303 301 300 299 299 301 301 301 302 303 305 311 318 323 329 332 333 333 333 334 335 333 333 333 332 329 321 321 321 321 322
302 301 299 297 297 295 299 299 300 300 301 302 305 310 314 317 325 331 331 330 330 331 329 326 324 323 321 322 319 321 325 320
301 299 298 296 294 294 294 299 298 297 300 299 300 304 306 308 311 319 327 328 328 329 328 325 322 321 319 318 319 319 320 325
301 299 298 295 293 292 293 297 298 296 298 296 298 303 303 303 305 309 314 318 321 324 324 324 324 326 326 327 327 328 328 329
300 299 297 293 292 292 292 294 295 295 294 298 294 298 302 301 302 304 307 309 312 314 317 320 321 322 323 325 325 326 327 328
299 298 296 293 292 291 291 292 293 295 291 296 293 297 300 300 299 301 303 305 307 309 310 312 314 315 318 321 322 323 325 326
298 296 295 294 292 290 290 290 291 292 292 292 292 294 300 302 300 301 300 302 303 305 306 307 308 310 311 313 316 319 322 324
296 295 294 293 292 291 289 289 289 289 291 290 291 290 293 297 301 302 303 301 300 302 303 305 306 307 308 309 310 312 314 318
295 294 293 292 291 291 289 288 288 288 289 288 289 290 290 291 292 294 296 296 297 300 300 302 304 303 305 306 308 309 310 311
294 293 292 291 291 290 289 288 288 288 288 287 288 288 289 289 290 291 293 293 296 300 299 301 302 300 303 305 306 308 308 310
293 292 291 291 290 290 289 289 288 288 287 287 287 287 288 289 290 290 291 293 299 300 296 298 302 300 302 303 306 306 306 307
Wind_Speed
16 19 20 21 22 22 19 18 16 16 18 21 24 26 29 31 34 34 32 36 40 40 39 32 34 32 36 30 26 25 27 22
20 21 24 26 28 27 25 24 22 19 18 19 22 24 28 32 35 36 36 36 41 39 41 36 37 38 39 39 31 29 28 24
22 24 28 30 31 33 31 27 25 25 22 23 25 27 28 31 32 35 38 37 40 45 41 42 42 38 38 38 36 34 33 29
28 30 31 31 32 34 36 36 30 25 28 26 28 30 31 32 33 33 36 41 41 44 40 40 38 40 39 38 38 39 37 36
28 30 32 31 31 31 34 36 36 27 20 27 30 32 33 34 35 33 35 36 42 45 46 41 41 42 42 41 40 32 28 31
26 27 28 28 30 30 32 29 26 28 26 24 26 29 36 41 34 34 33 36 40 44 43 41 42 41 44 42 37 30 28 33
23 24 26 27 31 39 33 30 26 21 20 24 30 33 34 39 36 38 34 34 39 41 45 45 44 44 41 41 34 29 40 30
22 27 30 30 31 37 40 32 30 26 19 15 20 26 35 33 38 36 34 35 37 37 41 40 45 42 42 35 27 17 27 32
22 24 25 27 28 33 37 35 28 29 24 23 15 10 13 24 35 34 33 34 31 36 40 39 39 31 30 25 24 28 27 36
22 24 23 25 27 29 33 35 29 25 27 22 19 9 10 9 2 24 22 20 23 27 23 22 23 30 29 22 31 35 33 41
23 24 23 26 26 27 28 31 31 26 24 20 17 13 14 17 12 7 18 17 16 17 18 21 18 17 23 23 24 25 27 39
22 24 23 26 25 28 27 30 31 27 20 22 19 14 11 18 16 13 8 7 12 14 17 19 19 20 19 20 21 27 36 41
23 24 23 34 32 31 29 29 29 29 21 20 24 14 16 13 17 13 10 6 2 2 7 12 15 14 17 21 20 21 25 31
24 24 27 32 35 34 32 28 28 29 26 21 24 16 10 14 19 16 12 7 6 2 3 5 8 10 13 15 23 22 22 22
25 25 25 27 30 31 32 30 27 28 25 26 25 23 13 9 18 16 13 11 7 3 3 2 4 6 5 14 20 27 27 29
23 24 25 25 26 26 27 26 28 27 26 24 24 23 18 12 7 10 13 12 11 7 7 4 4 1 13 17 18 20 22 25
22 22 23 24 25 26 27 26 26 27 26 23 21 20 19 18 12 16 14 11 10 7 8 6 6 4 15 17 17 18 18 20
21 21 22 23 24 25 26 26 25 24 24 23 23 23 21 19 17 15 13 14 14 11 10 7 6 7 14 14 17 19 19 21
20 21 22 21 23 23 24 24 24 24 25 25 25 25 25 24 21 20 19 18 15 16 16 15 12 12 17 18 18 18 18 19
Wind_Direction
354 349 347 344 344 341 336 329 318 299 258 251 246 242 239 232 233 231 231 240 247 236 232 216 214 219 222 215 217 220 228 221
347 347 345 347 346 341 336 326 318 307 289 267 253 248 241 241 238 234 233 229 245 243 232 221 228 215 222 218 215 216 221 222
347 352 348 347 344 339 332 331 318 303 290 280 265 256 250 244 245 241 233 232 235 250 237 230 225 226 223 218 219 222 219 219
351 347 349 346 346 341 334 324 316 310 293 286 276 263 255 246 242 239 240 232 230 241 244 232 231 223 224 219 220 224 225 229
348 348 348 347 343 341 335 327 316 308 289 288 278 272 258 246 239 241 237 234 233 233 238 236 231 224 224 217 218 217 224 231
354 353 350 349 348 344 339 329 309 290 281 279 273 274 265 255 248 243 241 234 233 234 233 234 230 226 224 223 203 215 243 246
355 350 350 350 352 350 344 335 326 314 296 285 284 265 268 259 252 242 237 241 234 233 231 234 231 225 224 213 220 246 244 242
349 346 345 347 350 353 347 341 336 326 329 322 294 279 256 257 252 244 240 243 243 244 235 235 228 224 218 215 205 235 247 243
345 342 339 340 345 349 349 343 343 328 328 330 328 310 292 267 249 243 239 237 239 239 225 226 221 223 221 219 207 237 253 252
342 340 342 343 343 345 349 346 344 339 328 333 335 339 15 13 145 206 199 199 206 221 225 230 241 247 258 256 237 252 241 246
337 337 339 341 341 340 343 350 344 356 326 344 341 348 8 20 358 117 175 183 177 174 193 201 208 224 225 228 232 239 242 251
335 335 334 338 339 341 344 349 350 352 344 339 2 352 330 22 16 28 107 184 203 211 218 222 228 216 225 244 252 249 241 240
333 332 328 335 341 344 346 350 355 348 356 332 346 360 350 359 4 19 45 32 119 205 227 219 226 233 240 242 240 247 246 247
332 333 333 336 339 342 345 350 351 352 1 347 349 354 350 343 5 26 17 23 11 27 270 213 220 228 224 229 237 241 237 244
331 333 334 335 339 339 341 344 351 354 358 357 352 356 8 336 338 357 5 3 351 351 336 263 225 231 250 237 235 241 249 245
331 333 335 337 338 339 340 343 344 355 356 358 354 350 354 358 341 304 318 339 346 351 331 310 273 208 248 248 249 248 251 252
335 336 337 338 338 339 338 342 346 347 353 356 351 354 358 347 349 341 338 321 318 355 341 338 326 317 270 268 272 269 267 264
337 337 337 337 338 338 338 342 343 346 349 351 350 351 353 349 347 341 338 332 342 334 332 332 321 325 286 286 281 280 279 277
335 334 335 338 336 338 340 343 343 346 348 350 353 351 352 350 346 346 349 348 342 328 333 325 318 315 308 303 294 295 289 282